When you browse on this site, cookies collect data to enhance your experience and personalize the content and advertising you see.
Visit our Privacy Policy to learn more. By continuing to use the site, you agree to this use of cookies and data.
  • In Austria
  • List of Countries
  • For 7 days
  • Water Temperature
  • Satellite Maps
  • Weather Map
  • News
  • Weather Widgets
  • user-avatar
    Login

    Hourly Weather Crown Point

    Today, 20 April, Saturday

    Time Temperature Precipitation Wind Pressure Humidity
    00:00 +3°C° 0 mm 7 mps 736 mmHg 64%
    01:00 +3°C° 0 mm 7 mps 736 mmHg 62%
    02:00 +2°C° 0 mm 8 mps 736 mmHg 61%
    03:00 +2°C° 0 mm 8 mps 736 mmHg 59%
    04:00 +2°C° 0 mm 8 mps 736 mmHg 60%
    05:00 +2°C° 0 mm 8 mps 736 mmHg 60%
    06:00 +2°C° 0 mm 8 mps 736 mmHg 61%
    07:00 +4°C° 0 mm 8 mps 736 mmHg 56%
    08:00 +5°C° 0 mm 8 mps 736 mmHg 52%
    09:00 +6°C° 0 mm 8 mps 737 mmHg 48%
    10:00 +7°C° 0 mm 8 mps 736 mmHg 44%
    11:00 +9°C° 0 mm 8 mps 736 mmHg 40%
    12:00 +10°C° 0 mm 8 mps 736 mmHg 36%
    13:00 +11°C° 0 mm 8 mps 736 mmHg 33%
    14:00 +11°C° 0 mm 8 mps 736 mmHg 30%
    15:00 +12°C° 0 mm 7 mps 736 mmHg 27%
    16:00 +11°C° 0 mm 6 mps 736 mmHg 30%
    17:00 +10°C° 0 mm 5 mps 736 mmHg 32%
    18:00 +10°C° 0 mm 4 mps 736 mmHg 34%
    19:00 +9°C° 0 mm 3 mps 737 mmHg 34%
    20:00 +8°C° 0 mm 3 mps 737 mmHg 35%
    21:00 +7°C° 0 mm 2 mps 738 mmHg 35%
    22:00 +7°C° 0 mm 2 mps 738 mmHg 36%
    23:00 +7°C° 0 mm 2 mps 738 mmHg 37%

    Tomorrow, 21 April, Sunday

    Time Temperature Precipitation Wind Pressure Humidity
    00:00 +8°C° 0 mm 1 mps 738 mmHg 39%
    01:00 +8°C° 0 mm 1 mps 738 mmHg 41%
    02:00 +8°C° 0 mm 1 mps 739 mmHg 43%
    03:00 +6°C° 0 mm 0 mps 739 mmHg 45%
    04:00 +8°C° 0 mm 1 mps 739 mmHg 49%
    05:00 +8°C° 0 mm 1 mps 740 mmHg 52%
    06:00 +8°C° 0 mm 1 mps 740 mmHg 56%
    07:00 +10°C° 0 mm 2 mps 741 mmHg 53%
    08:00 +13°C° 0 mm 2 mps 741 mmHg 51%
    09:00 +16°C° 0 mm 2 mps 742 mmHg 48%
    10:00 +18°C° 0 mm 3 mps 742 mmHg 45%
    11:00 +20°C° 0 mm 3 mps 742 mmHg 42%
    12:00 +22°C° 0 mm 3 mps 742 mmHg 40%
    13:00 +22°C° 0 mm 3 mps 742 mmHg 40%
    14:00 +23°C° 0 mm 4 mps 742 mmHg 40%
    15:00 +23°C° 0 mm 4 mps 741 mmHg 40%
    16:00 +22°C° 0 mm 4 mps 741 mmHg 45%
    17:00 +21°C° 0 mm 4 mps 742 mmHg 50%
    18:00 +20°C° 0 mm 4 mps 742 mmHg 55%
    19:00 +19°C° 0 mm 4 mps 742 mmHg 60%
    20:00 +18°C° 0 mm 4 mps 742 mmHg 65%
    21:00 +17°C° 0 mm 4 mps 743 mmHg 70%
    22:00 +15°C° 0 mm 4 mps 743 mmHg 72%
    23:00 +15°C° 0 mm 4 mps 743 mmHg 75%

    Day after tomorrow, 22 April, Monday

    Time Temperature Precipitation Wind Pressure Humidity
    00:00 +14°C° 0 mm 4 mps 743 mmHg 78%
    01:00 +14°C° 0 mm 4 mps 742 mmHg 79%
    02:00 +14°C° 0 mm 4 mps 742 mmHg 80%
    03:00 +14°C° 0 mm 4 mps 742 mmHg 81%
    04:00 +14°C° 0 mm 4 mps 742 mmHg 84%
    05:00 +13°C° 0 mm 4 mps 742 mmHg 86%
    06:00 +13°C° 0 mm 4 mps 742 mmHg 88%
    07:00 +15°C° 0 mm 4 mps 742 mmHg 81%
    08:00 +17°C° 0 mm 5 mps 743 mmHg 75%
    09:00 +20°C° 0 mm 5 mps 743 mmHg 69%
    10:00 +21°C° 0 mm 5 mps 743 mmHg 63%
    11:00 +23°C° 0 mm 6 mps 742 mmHg 58%
    12:00 +26°C° 0 mm 6 mps 742 mmHg 52%
    13:00 +26°C° 0 mm 6 mps 742 mmHg 52%
    14:00 +26°C° 0 mm 6 mps 741 mmHg 52%
    15:00 +24°C° 0 mm 7 mps 741 mmHg 52%
    16:00 +24°C° 0 mm 6 mps 741 mmHg 56%
    17:00 +23°C° 0 mm 6 mps 741 mmHg 60%
    18:00 +22°C° 0 mm 5 mps 741 mmHg 63%
    19:00 +21°C° 0 mm 5 mps 741 mmHg 66%
    20:00 +21°C° 0 mm 5 mps 741 mmHg 69%
    21:00 +20°C° 0 mm 5 mps 741 mmHg 72%
    22:00 +20°C° 0 mm 5 mps 741 mmHg 73%
    23:00 +20°C° 0 mm 5 mps 741 mmHg 74%

    23 April, Tuesday

    Time Temperature Precipitation Wind Pressure Humidity
    00:00 +20°C° 0 mm 4 mps 741 mmHg 74%
    01:00 +19°C° 0.1 mm 4 mps 740 mmHg 75%
    02:00 +19°C° 0.1 mm 4 mps 740 mmHg 75%
    03:00 +19°C° 0.1 mm 4 mps 739 mmHg 76%
    04:00 +19°C° 0.4 mm 4 mps 740 mmHg 79%
    05:00 +18°C° 0.4 mm 3 mps 740 mmHg 82%
    06:00 +18°C° 0.4 mm 3 mps 740 mmHg 84%
    07:00 +18°C° 0.4 mm 3 mps 740 mmHg 82%
    08:00 +19°C° 0.4 mm 3 mps 741 mmHg 80%
    09:00 +20°C° 0.4 mm 3 mps 741 mmHg 78%
    10:00 +18°C° 0.1 mm 3 mps 741 mmHg 79%
    11:00 +14°C° 0.1 mm 3 mps 741 mmHg 79%
    12:00 +12°C° 0.1 mm 4 mps 741 mmHg 80%
    13:00 +12°C° 0.1 mm 4 mps 741 mmHg 80%
    14:00 +11°C° 0.1 mm 4 mps 740 mmHg 80%
    15:00 +11°C° 0.1 mm 4 mps 740 mmHg 80%
    16:00 +10°C° 0.1 mm 4 mps 740 mmHg 81%
    17:00 +10°C° 0.1 mm 3 mps 740 mmHg 83%
    18:00 +9°C° 0.1 mm 3 mps 740 mmHg 84%
    19:00 +10°C° 0.3 mm 3 mps 740 mmHg 86%
    20:00 +10°C° 0.3 mm 3 mps 740 mmHg 88%
    21:00 +10°C° 0.3 mm 3 mps 739 mmHg 90%
    22:00 +10°C° 0.6 mm 3 mps 739 mmHg 92%
    23:00 +11°C° 0.6 mm 3 mps 738 mmHg 94%

    24 April, Wednesday

    Time Temperature Precipitation Wind Pressure Humidity
    00:00 +12°C° 0.6 mm 3 mps 738 mmHg 96%
    01:00 +13°C° 0.2 mm 4 mps 737 mmHg 95%
    02:00 +14°C° 0.2 mm 4 mps 737 mmHg 95%
    03:00 +15°C° 0.2 mm 4 mps 737 mmHg 95%
    04:00 +13°C° 0 mm 4 mps 737 mmHg 93%
    05:00 +12°C° 0 mm 5 mps 737 mmHg 91%
    06:00 +9°C° 0 mm 5 mps 738 mmHg 89%
    07:00 +9°C° 0 mm 5 mps 738 mmHg 86%
    08:00 +10°C° 0 mm 4 mps 738 mmHg 84%
    09:00 +10°C° 0 mm 4 mps 739 mmHg 81%
    10:00 +11°C° 0 mm 4 mps 739 mmHg 77%
    11:00 +12°C° 0 mm 4 mps 739 mmHg 73%
    12:00 +13°C° 0 mm 3 mps 739 mmHg 69%
    13:00 +13°C° 0 mm 3 mps 738 mmHg 68%
    14:00 +13°C° 0 mm 3 mps 738 mmHg 68%
    15:00 +13°C° 0 mm 3 mps 738 mmHg 68%
    16:00 +12°C° 0 mm 3 mps 738 mmHg 70%
    17:00 +11°C° 0 mm 3 mps 738 mmHg 72%
    18:00 +10°C° 0 mm 3 mps 738 mmHg 75%
    19:00 +9°C° 0 mm 2 mps 738 mmHg 77%
    20:00 +9°C° 0 mm 2 mps 739 mmHg 79%
    21:00 +9°C° 0 mm 1 mps 739 mmHg 81%
    22:00 +9°C° 0 mm 1 mps 739 mmHg 83%
    23:00 +9°C° 0 mm 1 mps 738 mmHg 85%

    25 April, Thursday

    Time Temperature Precipitation Wind Pressure Humidity
    00:00 +9°C° 0 mm 1 mps 738 mmHg 86%
    01:00 +8°C° 0 mm 0 mps 738 mmHg 87%
    02:00 +8°C° 0 mm 0 mps 738 mmHg 87%
    03:00 +8°C° 0 mm 0 mps 738 mmHg 87%
    04:00 +8°C° 0 mm 0 mps 738 mmHg 86%
    05:00 +10°C° 0 mm 1 mps 738 mmHg 86%
    06:00 +10°C° 0 mm 1 mps 738 mmHg 85%
    07:00 +12°C° 0 mm 2 mps 738 mmHg 80%
    08:00 +14°C° 0 mm 2 mps 738 mmHg 75%
    09:00 +17°C° 0 mm 3 mps 738 mmHg 70%
    10:00 +18°C° 0 mm 3 mps 738 mmHg 67%
    11:00 +19°C° 0 mm 4 mps 737 mmHg 64%
    12:00 +20°C° 0 mm 4 mps 737 mmHg 62%
    13:00 +21°C° 0 mm 5 mps 737 mmHg 58%
    14:00 +22°C° 0 mm 5 mps 737 mmHg 53%
    15:00 +23°C° 0 mm 6 mps 737 mmHg 49%
    16:00 +22°C° 0.1 mm 6 mps 737 mmHg 55%
    17:00 +20°C° 0.1 mm 5 mps 737 mmHg 60%
    18:00 +19°C° 0.1 mm 5 mps 737 mmHg 66%
    19:00 +15°C° 0 mm 5 mps 738 mmHg 69%
    20:00 +13°C° 0 mm 5 mps 739 mmHg 72%
    21:00 +10°C° 0 mm 5 mps 740 mmHg 75%
    22:00 +9°C° 0 mm 5 mps 740 mmHg 76%
    23:00 +10°C° 0 mm 4 mps 741 mmHg 77%
    Show more